This is the latest recevied weather packets stored in our database for station/object AI9F. If no packets are shown the sender has not sent any weather packets the latest 10 day(s).
| Time | Temp. | Humidity | Pressure | Rain* | Wind** | Luminosity | Snow |
|---|---|---|---|---|---|---|---|
| 1777580259 | 18.89° C | 40% | 1017 hPa | 0 mm | - | 291 W/m² | - |
| 1777579956 | 18.89° C | 37% | 1016.9 hPa | 0 mm | - | 742 W/m² | - |
| 1777579651 | 18.33° C | 32% | 1017 hPa | 0 mm | - | 742 W/m² | - |
| 1777579350 | 17.78° C | 33% | 1017 hPa | 0 mm | - | 726 W/m² | - |
| 1777579046 | 17.78° C | 33% | 1017.4 hPa | 0 mm | - | 753 W/m² | - |
| 1777578741 | 17.78° C | 34% | 1017.3 hPa | 0 mm | - | 759 W/m² | - |
| 1777578441 | 17.78° C | 35% | 1017.5 hPa | 0 mm | - | 773 W/m² | - |
| 1777578136 | 18.33° C | 38% | 1017.5 hPa | 0 mm | - | 774 W/m² | - |
| 1777577833 | 18.89° C | 33% | 1017.2 hPa | 0 mm | - | 779 W/m² | - |
| 1777577528 | 18.89° C | 41% | 1017.5 hPa | 0 mm | - | 772 W/m² | - |
| 1777577225 | 18.89° C | 33% | 1017.5 hPa | 0 mm | - | 788 W/m² | - |
| 1777576921 | 17.78° C | 37% | 1017.7 hPa | 0 mm | - | 785 W/m² | - |
| 1777576616 | 17.22° C | 37% | 1017.5 hPa | 0 mm | - | 792 W/m² | - |
| 1777576312 | 16.67° C | 41% | 1017.9 hPa | 0 mm | - | 802 W/m² | - |
| 1777576008 | 16.67° C | 35% | 1017.8 hPa | 0 mm | - | 419 W/m² | - |
| 1777575705 | 17.22° C | 41% | 1017.7 hPa | 0 mm | - | 171 W/m² | - |
| 1777575401 | 16.67° C | 45% | 1017.9 hPa | 0 mm | - | 369 W/m² | - |
| 1777575097 | 16.67° C | 44% | 1017.9 hPa | 0 mm | - | 862 W/m² | - |
| 1777574792 | 16.67° C | 37% | 1017.8 hPa | 0 mm | - | 161 W/m² | - |
| 1777574491 | 16.67° C | 36% | 1017.9 hPa | 0 mm | - | 201 W/m² | - |
| 1777574187 | 16.67° C | 43% | 1018 hPa | 0 mm | - | 936 W/m² | - |
| 1777573881 | 17.78° C | 36% | 1018.1 hPa | 0 mm | - | 449 W/m² | - |
| 1777573576 | 18.33° C | 44% | 1018.1 hPa | 0 mm | - | 663 W/m² | - |
| 1777573273 | 17.22° C | 43% | 1018.2 hPa | 0 mm | - | 859 W/m² | - |
| 1777572969 | 17.78° C | 39% | 1018.3 hPa | 0 mm | - | 845 W/m² | - |
* Rain latest hour (hover to see other rain measurements)
** Current wind speed in m/s (hover to see current wind gust speed)